Regional Weather Roundup
Issued by NWS

Home | Current Version | Previous Version | Text Only | Print | Product List | Glossary Off
Versions: 1 2 3 4 5 6 7 8 9 10 11 12 13 14 15 16 17 18 19 20 21 22 23 24 25 26 27 28 29 30 31 32 33 34 35 36 37 38 39 40 41 42 43 44 45 46 47 48 49 50

112
ASUS43 KIND 251400
RWRIN

WEATHER ROUNDUP FOR INDIANA
NATIONAL WEATHER SERVICE INDIANAPOLIS IN
1000 AM EDT SUN JUN 25 2017

NOTE: "FAIR" INDICATES FEW OR NO CLOUDS BELOW 12,000 FEET WITH NO
SIGNIFICANT WEATHER AND/OR OBSTRUCTIONS TO VISIBILITY.

* - STATION DOES NOT REPORT WEATHER SUCH AS PRECIPITATION OR FOG.

+ - STATION NOT QUALITY CONTROLLED BY THE NATIONAL WEATHER SERVICE.
    USE DATA WITH CAUTION...ESPECIALLY DEWPOINT AND RELATIVE
    HUMIDITY OBSERVATIONS.

INZ001>003-010>013-019-020-251500-
NORTHWEST INDIANA

CITY           SKY/WX    TMP DP  RH WIND       PRES   REMARKS
GARY /AIRPORT/ MOSUNNY   66  45  45 W12G24    30.12R
KNOX *+        SUNNY     63  36  36 W16       30.12R
MONTICELLO +   SUNNY     64  46  51 W13       30.14R

$$

LMZ046-743>745-251500-
SOUTHERN LAKE MICHIGAN

STATION/POSITION TIME  TEMP    WIND        PRES    WAVE
                       AIR SEA DIR/SP/G            HT
                 (UTC) (F)     (DEG/KT/KT) (MB)    (FT)
BURNS HARBOR     1340   62     260/ 14/ 17 1020.0R
MICHIGAN CITY    1330   60     250/ 19/ 22   N/A
5NW MICH CITY    1350   61 66  270/ 16/ 19   N/A     4

$$

INZ004-005-014>016-021>024-251500-
NORTH CENTRAL INDIANA

CITY           SKY/WX    TMP DP  RH WIND       PRES   REMARKS
GOSHEN         SUNNY     63  46  54 W20       30.09R
SOUTH BEND     PTSUNNY   63  49  60 W14       30.10R

$$

INZ006>009-017-018-025>027-251500-
NORTHEAST INDIANA

CITY           SKY/WX    TMP DP  RH WIND       PRES   REMARKS
FORT WAYNE     SUNNY     65  47  52 W16       30.10R
KENDALLVILLE + SUNNY     62  47  58 W9G21     30.09R

$$

INZ028-029-035-036-043>045-051>053-251500-
WEST CENTRAL INDIANA

CITY           SKY/WX    TMP DP  RH WIND       PRES   REMARKS
CRAWFORDSVL +  SUNNY     62  51  65 W8        30.16S
LAFAYETTE      SUNNY     64  50  60 NW12      30.14S
TERRE HAUTE    SUNNY     68  52  56 W7        30.17R

$$

INZ030>032-037>040-046>048-054>057-064-065-251500-
CENTRAL INDIANA

CITY           SKY/WX    TMP DP  RH WIND       PRES   REMARKS
COLUMBUS       MOSUNNY   66  46  48 W16       30.17R
GREENWOOD *+   SUNNY     66  48  52 W12G20    30.16S
INDIANAPOLIS   MOSUNNY   67  50  54 W12       30.16R
-EAGLE CREEK   SUNNY     66  48  52 W9        30.15R
KOKOMO +       SUNNY     64  47  53 W16       30.14R
MT COMFORT *+  SUNNY     66  50  55 W9        30.16R
SHELBYVILLE    SUNNY     69  49  48 W14       30.15S

$$

INZ033-034-041-042-049-050-058-059-251500-
EAST CENTRAL INDIANA

CITY           SKY/WX    TMP DP  RH WIND       PRES   REMARKS
MUNCIE         SUNNY     66  46  48 NW12G18   30.13R
RICHMOND +     SUNNY     64  46  52 W15G23    30.15S

$$

INZ060-061-067>069-081>083-085>088-251500-
SOUTHWEST INDIANA

CITY           SKY/WX    TMP DP  RH WIND       PRES   REMARKS
EVANSVILLE     SUNNY     73  50  44 W10       30.21R
HUNTINGBURG *+ SUNNY     69  56  62 SW6       30.21R

$$

INZ062-063-066-070>080-084-089>092-251500-
SOUTH CENTRAL AND SOUTHEAST INDIANA

CITY           SKY/WX    TMP DP  RH WIND       PRES   REMARKS
BLOOMINGTON    SUNNY     67  50  54 W8        30.18R
MADISON *+     SUNNY     70  46  43 W9        30.20S
SEYMOUR +      PTSUNNY   72  52  49 W10       30.18R

$$





USA.gov is the U.S. government's official web portal to all federal, state and local government web resources and services.